This demonstration page uses our WeatherBlox Daily Observations layout. Learn more.

Left ArrowRight Arrow

Hourly Observations for May 6, 2020

Temp ( °F °C ) Dew Point ( °F °C ) Humidity (%) Winds ( mph kmh ) Pressure ( in mb ) Visibility ( mi km ) Precip ( " mm )
12:56 am 00:56 Cloudy 52 11.1 38 3.3 59 59 NW 6 9 30.24 1024 10 16 0.00 0.00
1:56 am 01:56 Partly Cloudy 50 10 38 3.3 63 63 NW 8 13 30.27 1025 10 16 0.00 0.00
2:56 am 02:56 Clear 47 8.3 37 2.8 69 69 NW 7 11 30.28 1026 10 16 0.00 0.00
3:56 am 03:56 Clear 45 7.2 37 2.8 74 74 NNW 8 13 30.29 1026 10 16 0.00 0.00
4:56 am 04:56 Clear 43 6.1 37 2.8 80 80 NNW 9 15 30.31 1027 10 16 0.00 0.00
5:56 am 05:56 Clear 41 5 37 2.8 86 86 NNW 12 19 30.32 1027 10 16 0.00 0.00
6:56 am 06:56 Sunny 42 5.6 37 2.8 82 82 NW 10 17 30.33 1027 10 16 0.00 0.00
7:56 am 07:56 Sunny 45 7.2 36 2.2 71 71 NNW 14 22 30.34 1028 10 16 0.00 0.00
8:56 am 08:56 Sunny 48 8.9 37 2.8 66 66 NNW 17 28 30.35 1028 10 16 0.00 0.00
9:56 am 09:56 Sunny 51 10.6 37 2.8 59 59 NNW 14 22 30.36 1028 10 16 0.00 0.00
10:56 am 10:56 Sunny 54 12.2 36 2.2 51 51 N 17 28 30.34 1028 10 16 0.00 0.00
11:56 am 11:56 Sunny 57 13.9 35 1.7 44 44 N 17 28 30.34 1027 10 16 0.00 0.00
12:56 pm 12:56 Sunny 59 15 35 1.7 41 41 N 21 33 30.31 1026 10 16 0.00 0.00
1:56 pm 13:56 Sunny 61 16.1 36 2.2 39 39 NNE 14 22 30.28 1026 10 16 0.00 0.00
2:56 pm 14:56 Sunny 62 16.7 34 1.1 35 35 NNW 14 22 30.28 1025 10 16 0.00 0.00
3:56 pm 15:56 Sunny 64 17.8 35 1.7 34 34 N 8 13 30.26 1025 10 16 0.00 0.00
4:56 pm 16:56 Partly Cloudy 63 17.2 35 1.7 35 35 VRB 7 11 30.24 1024 10 16 0.00 0.00
5:56 pm 17:56 Mostly Sunny 62 16.7 35 1.7 37 37 N 12 19 30.23 1024 10 16 0.00 0.00
6:56 pm 18:56 Sunny 61 16.1 35 1.7 38 38 ENE 10 17 30.22 1023 10 16 0.00 0.00
7:56 pm 19:56 Sunny 59 15 35 1.7 41 41 NE 9 15 30.21 1023 10 16 0.00 0.00
8:56 pm 20:56 Clear 52 11.1 37 2.8 57 57 ENE 8 13 30.23 1024 10 16 0.00 0.00
9:56 pm 21:56 Clear 48 8.9 38 3.3 68 68 ESE 9 15 30.23 1024 10 16 0.00 0.00
10:56 pm 22:56 Clear 47 8.3 38 3.3 71 71 SE 7 11 30.22 1023 10 16 0.00 0.00
11:56 pm 23:56 Clear 46 7.8 37 2.8 71 71 ESE 9 15 30.21 1023 10 16 0.00 0.00

Powered by AerisWeather